Location: Eastmor
(42.6845°N, 73.6318°W)
Time: 02:04:54
(UTC+00:00)

Daily predictions for brighter satellites

Satellite Brightness Start Highest point End
(mag) Time Altitude Azimuth Time Altitude Azimuth Time Altitude Azimuth
USA 238 DEB 4.1 00:46:38 10° NW 00:53:57 76° WSW 01:01:33 10° SSE
USA 238 4.1 00:46:44 10° NW 00:54:03 76° WSW 01:01:39 10° SSE
IRIS 4.0 00:53:17 10° W 00:55:45 64° S 00:59:10 10° E
Cosmos 44 Rocket 4.2 00:51:48 10° S 00:56:16 31° ESE 01:00:50 10° NE
NOSS 7 (H) 4.4 00:54:40 10° SW 00:58:25 83° NW 01:01:27 10° NE
ISS -1.1 00:56:12 10° NW 00:58:35 18° N 01:00:57 10° NE
IRS-1A Rocket 4.3 00:57:41 10° SSE 01:03:14 76° ENE 01:08:44 10° NNW
Ariane Rocket 3.0 00:59:13 10° SSE 01:04:16 72° ENE 01:09:20 10° N
ERS-2 2.2 01:01:45 10° NNE 01:05:22 57° ESE 01:08:57 10° S
Helios 1A Rocket 3.8 01:04:14 10° S 01:08:09 50° W 01:12:07 10° NNW
OAO 2 Rocket 4.1 01:05:46 10° WSW 01:10:17 34° S 01:14:32 11° ESE
Cosmos 1818 4.3 01:06:21 10° SW 01:11:44 61° NW 01:17:11 10° NNE
USA 276 4.4 01:12:48 10° WNW 01:15:28 24° N 01:18:07 10° NE
Cosmos 2221 3.1 01:11:30 10° N 01:15:32 39° ENE 01:19:21 11° SE
Cosmos 1242 Rocket 2.5 01:12:35 10° N 01:16:10 65° E 01:19:42 10° SSE
MOS 1 4.4 01:11:02 10° SSE 01:16:42 82° WSW 01:22:24 10° NNW
USA 307 3.5 01:13:35 10° WNW 01:17:43 50° SW 01:21:34 11° SSE
BREEZE-M DEB (TANK) 3.2 01:16:00 10° SSW 01:18:59 45° SE 01:27:25 10° ENE
Cosmos 1697 Rocket 2.9 01:17:10 10° NNW 01:22:47 60° ENE 01:27:44 13° SE
Meteor 2-13 Rocket 4.4 01:20:49 10° S 01:26:54 79° E 01:33:01 10° N
Terra 3.8 01:25:59 10° E 01:28:43 15° ENE 01:31:27 10° NNE
Cosmos 2082 Rocket 2.5 01:23:53 10° S 01:29:08 43° ESE 01:34:28 10° NE
ERBS 3.8 01:27:46 10° NNW 01:30:34 26° NE 01:32:57 13° E
Hubble Space Telescope 3.0 01:31:34 10° S 01:31:43 10° S 01:31:53 10° S
IGS 5A 3.4 01:27:55 10° SSE 01:32:04 89° ENE 01:36:15 10° NNW
Cosmos 1833 Rocket 2.7 01:27:15 10° SSW 01:32:54 86° WNW 01:38:35 10° NNE
Cosmos 1953 Rocket 4.5 01:28:54 10° SSW 01:33:17 53° W 01:37:41 10° N
Cosmos 1606 3.2 01:30:15 10° N 01:33:50 41° ENE 01:36:14 18° SE
SPOT 3 Rocket 3.6 01:28:49 11° SSE 01:33:51 72° ENE 01:39:05 10° N
USA 305 4.1 01:30:35 10° WNW 01:34:21 33° SW 01:37:38 13° SSE
USA 308 3.9 01:30:35 10° WNW 01:34:30 36° SW 01:37:46 14° SSE
Cosmos 773 Rocket 4.0 01:32:57 10° S 01:38:05 61° ESE 01:43:12 10° NNE
Cosmos 2279 Rocket 4.2 01:39:49 10° N 01:46:01 74° W 01:52:10 10° S
Cosmos 2151 3.8 01:47:17 21° SE 01:49:13 32° E 01:52:59 10° NNE
Landsat 7 4.1 01:49:11 11° S 01:53:42 65° WSW 01:58:27 10° NNW
Cosmos 1842 Rocket 3.7 01:51:17 10° N 01:55:47 79° W 01:59:20 16° S
Cosmos 2058 3.8 01:51:46 10° SSW 01:55:48 49° W 01:59:54 10° N
GP-B 4.0 01:51:52 10° NNE 01:55:49 30° E 01:57:25 24° ESE
COSMOS 2406 3.7 01:50:30 10° SW 01:56:07 63° WNW 02:01:48 10° NNE
Cosmos 1825 4.2 01:53:58 10° SW 01:57:15 28° WNW 02:00:32 10° NNW
Meteor 2-3 Rocket 4.4 01:54:12 21° SE 01:57:16 36° E 02:02:24 10° NNE
Cosmos 2369 3.7 01:51:56 10° NNW 01:57:37 80° ENE 02:01:22 22° SSE
ERS-1 Rocket 3.5 02:00:52 24° SE 02:03:33 45° ENE 02:08:19 10° N
Spot 2 Rocket 3.6 02:01:34 23° SSE 02:04:45 67° ENE 02:09:50 10° N
Cosmos 1076 Rocket 3.5 02:02:51 14° S 02:06:32 90° SE 02:10:56 10° N
ATLAS 2AS CENTAUR R/B 3.3 02:00:38 10° SW 02:08:33 75° NW 02:16:21 10° NNE
Cosmos 1980 Rocket 2.2 02:03:17 10° NNW 02:08:54 72° ENE 02:12:06 27° SE
Resurs 01 Rocket 3.1 02:09:03 10° SSW 02:13:05 34° W 02:17:08 10° NNW
Nadezhda 4 Rocket 4.0 02:08:19 10° S 02:14:27 85° W 02:20:42 10° N
Cosmos 2322 Rocket 3.9 02:11:51 10° N 02:16:02 21° NE 02:19:11 14° E
Cosmos 1538 Rocket 3.9 02:13:44 14° S 02:18:12 70° ESE 02:23:23 10° NNE
Cosmos 158 Rocket 4.1 02:18:29 27° SSE 02:21:02 52° ESE 02:26:07 10° NNE
RESURS DK-1 2.7 02:19:57 10° SW 02:24:03 67° WNW 02:28:13 10° NNE
Cosmos 2098 Rocket 3.2 02:22:42 23° SW 02:24:11 43° WNW 02:27:14 10° N
USA 267 3.2 02:18:53 10° NE 02:25:23 64° SE 02:31:52 10° SW
USA 245 4.5 02:22:59 19° S 02:26:59 60° WSW 02:31:49 10° NNW
Meteor 2-19 Rocket 4.3 02:22:44 19° S 02:27:15 83° E 02:33:20 10° N
Cosmos 1271 Rocket 3.3 02:23:35 10° N 02:27:22 42° ENE 02:28:02 39° ESE
ATLAS 3B R/B 2.9 02:21:32 10° NNW 02:28:40 71° NE 02:32:46 29° SE
BREEZE-M DEB (TANK) 4.0 02:24:58 10° WNW 02:28:44 83° NNE 02:36:58 19° ESE
Cosmos 1633 4.0 02:29:08 13° SW 02:32:04 36° WNW 02:35:26 10° N
SPOT 1/Viking Rocket 4.4 02:28:26 17° SSW 02:32:08 45° W 02:37:08 10° NNW
ISS -1.9 02:33:15 10° NW 02:36:12 27° NNE 02:37:38 20° ENE
Cosmos 1933 3.2 02:36:06 10° N 02:40:11 87° E 02:41:03 54° SSE
Cosmos 1428 Rocket 4.4 02:37:00 28° S 02:40:23 75° E 02:46:30 10° N
ARIANE 5 R/B 2.9 02:38:33 34° S 02:40:23 64° WSW 02:44:52 10° NNW
SL-16 R/B 3.0 02:36:10 10° N 02:41:29 39° ENE 02:43:41 28° ESE
SPOT 5 2.7 02:44:08 43° S 02:45:29 72° WSW 02:49:49 10° NNW
Cosmos 1553 Rocket 4.4 02:41:01 10° N 02:46:50 46° ENE 02:48:47 35° ESE
Cosmos 304 Rocket 3.9 02:42:26 10° NNW 02:47:13 63° ENE 02:48:21 47° ESE
USA 276 4.4 02:49:44 10° NW 02:52:20 23° N 02:53:40 17° NE
USA 234 4.0 02:53:40 18° E 02:58:24 49° NNE 03:04:39 10° NW
Meteor 1-26 Rocket 4.3 02:56:15 10° NNW 03:02:16 79° W 03:04:28 40° S
Cosmos 371 Rocket 3.9 02:59:13 10° NNW 03:03:51 48° WSW 03:05:07 38° SSW
Cosmos 923 Rocket 3.9 03:03:16 45° S 03:04:57 79° ESE 03:10:19 10° NNE
Terra 2.0 03:04:43 47° SSW 03:05:55 65° WSW 03:10:41 10° NNW
ERBS 4.0 03:03:45 10° WNW 03:05:39 25° W 03:05:39 25° W
Cosmos 1515 Rocket 4.4 03:06:21 10° N 03:10:27 36° ENE 03:10:27 36° ENE
Cosmos 1862 3.9 03:12:07 45° ENE 03:12:07 45° ENE 03:15:21 10° NNE
Cosmos 2082 Rocket 4.0 03:08:29 10° WSW 03:13:22 30° NW 03:18:18 10° N
S3M 4.4 03:08:02 10° N 03:14:14 52° ENE 03:15:54 42° ESE
ALOS 2 4.4 03:18:53 19° ENE 03:19:11 19° ENE 03:22:18 10° NNE
Cosmos 2056 Rocket 4.2 03:14:13 10° N 03:19:20 43° ENE 03:20:20 39° E
Cosmos 1766 Rocket 3.6 03:18:52 63° SW 03:19:25 72° W 03:23:50 10° N
Meteor 2-14 Rocket 4.3 03:17:55 47° S 03:19:48 81° E 03:25:59 10° N
Cosmos 1812 3.0 03:16:01 10° N 03:19:23 60° NNE 03:19:23 60° NNE
Cosmos 1782 3.4 03:19:13 10° NNW 03:23:07 49° W 03:23:15 49° W
Cosmos 2333 Rocket 4.0 03:20:55 10° N 03:25:11 21° NE 03:27:40 16° E
Gbstr 26 Del rocket 3.7 03:23:58 10° NW 03:27:42 45° NNE 03:28:19 41° NE
Cosmos 2360 Rocket 2.9 03:26:23 10° NNW 03:31:45 43° ENE 03:33:01 38° E
Cosmos 1328 Rocket 3.6 03:29:33 10° NNW 03:33:59 69° W 03:34:03 69° WSW
Cosmos 2112 Rocket 4.0 03:38:50 59° SW 03:39:51 80° WNW 03:45:10 10° NNE
Cosmos 1371 Rocket 4.0 03:35:00 10° NNW 03:40:23 73° ENE 03:40:56 67° ESE
Cosmos 1680 Rocket 3.7 03:40:31 46° SW 03:41:57 66° WNW 03:47:13 10° NNE
Cosmos 1151 Rocket 4.0 03:40:29 10° NNW 03:44:32 39° W 03:44:42 38° W
Cosmos 1980 Rocket 4.2 03:48:55 10° WNW 03:52:13 16° W 03:53:53 14° WSW
BREEZE-M DEB (TANK) 3.9 03:49:30 10° WNW 03:53:59 52° SSW 03:55:45 45° S
IRIDIUM 106 4.3 03:51:14 10° N 03:56:27 65° E 03:56:30 65° E
Cosmos 2322 Rocket 2.1 03:55:01 10° NNW 04:00:37 68° WSW 04:00:59 66° SW
Cosmos 1500 Rocket 3.9 04:05:32 63° N 04:05:32 63° N 04:09:17 10° N
USA 267 4.2 04:02:04 10° NE 04:08:14 46° NNW 04:14:25 10° W
ISS -1.0 04:09:53 10° WNW 04:10:34 15° WNW 04:10:34 15° WNW
Cosmos 2315 Rocket 3.9 04:10:22 10° N 04:16:42 83° E 04:17:33 68° SSE
ATLAS 3B R/B 4.1 04:13:08 10° WNW 04:18:50 26° WSW 04:20:00 25° SW
Cosmos 292 Rocket 3.9 04:14:09 10° NNW 04:18:26 71° N 04:18:26 71° N
Cosmos 2237 4.3 04:14:40 10° NNW 04:20:18 63° WSW 04:20:24 62° WSW
Spot 4 4.2 04:22:24 55° W 04:22:24 55° W 04:26:46 10° NNW
Meteor 1-27 Rocket 3.6 04:16:38 10° NNW 04:22:16 79° W 04:22:32 77° SW
Cosmos 1624 Rocket 4.4 04:17:24 10° NNW 04:22:13 53° W 04:22:13 53° W
Cosmos 1743 Rocket 4.2 04:23:27 54° NW 04:23:27 54° NW 04:27:23 10° N
COSMOS 2428 3.7 04:17:41 10° N 04:22:59 37° ENE 04:24:20 33° E
Cosmos 2333 4.3 04:17:29 10° NNW 04:23:04 63° ENE 04:23:31 60° E
Cosmos 2228 Rocket 3.5 04:18:59 10° N 04:22:34 59° N 04:22:34 59° N
SL-16 R/B 3.2 04:20:29 10° NW 04:25:27 32° WSW 04:25:32 32° WSW
Cosmos 2219 Rocket 2.7 04:23:22 10° NNW 04:28:48 49° ENE 04:29:34 46° E
Thor Agena Rocket 4.3 04:30:38 10° NNE 04:34:44 40° ENE 04:34:44 40° ENE
Cosmos 1420 Rocket 4.3 04:32:20 10° NNW 04:37:14 59° W 04:37:14 59° W
Cosmos 1633 Rocket 4.3 04:41:08 35° NE 04:41:08 35° NE 04:44:08 10° NNE
USA 234 3.2 04:41:01 59° SW 04:41:18 60° SW 04:47:47 10° NW
COSMOS 2455 2.7 04:44:29 78° SE 04:44:35 79° ESE 04:50:38 10° NNE
Sich 1 3.7 04:45:43 54° N 04:45:43 54° N 04:49:10 10° N
Cosmos 489 Rocket 4.3 04:48:18 71° SE 04:48:42 74° ESE 04:55:02 10° NNE
BREEZE-M DEB (TANK) 3.8 04:37:08 10° WSW 04:49:05 79° SSE 04:53:01 10° ENE
Nimbus 7 Rocket 4.3 04:45:32 10° NNE 04:51:35 86° WNW 04:52:08 75° SSW
Cosmos 1452 Rocket 3.5 04:47:06 10° NNW 04:52:03 79° NNW 04:52:03 79° NNW
Meteor 1-20 Rocket 4.1 04:53:51 74° W 04:53:58 74° W 04:59:37 10° N
ALOS 2 3.8 04:56:16 35° WNW 04:56:16 35° WNW 04:59:23 10° NNW
Meteor 1-18 Rocket 4.3 04:55:22 10° N 05:01:15 70° ENE 05:01:37 68° ESE
Cosmos 1745 Rocket 4.2 05:00:51 51° ESE 05:01:24 53° E 05:07:26 10° NNE
Cosmos 1862 Rocket 4.4 05:00:08 10° N 05:03:33 47° NE 05:03:33 47° NE
Geosat 4.0 05:05:50 78° NNE 05:05:50 78° NNE 05:10:41 10° NNW
ATLAS 5 CENTAUR R/B 3.3 05:04:16 10° NNW 05:09:34 43° NE 05:12:56 24° ESE
Cosmos 2333 Rocket 2.3 05:04:21 10° NNW 05:09:38 65° W 05:09:38 65° W
Cosmos 1707 Rocket 4.5 05:10:23 10° NNW 05:13:31 43° NW 05:13:31 43° NW
Cosmos 2360 Rocket 3.5 05:10:48 10° NW 05:14:45 27° W 05:14:45 27° W
Lacrosse 5 3.9 05:18:45 17° E 05:18:45 17° E 05:20:35 10° ENE
SL-16 R/B 4.4 05:15:03 12° ESE 05:19:13 23° ENE 05:23:51 10° N
Resurs 1-4 Rocket 4.0 05:18:16 10° NE 05:21:53 18° E 05:22:21 18° E
Cosmos 1110 Rocket 4.0 05:19:03 10° NNW 05:24:10 82° NNW 05:24:10 82° NNW
Nadezhda 1 Rocket 4.0 05:17:59 10° N 05:24:26 79° E 05:25:20 66° SE
Cosmos 2322 4.1 05:19:34 10° NNW 05:24:37 51° W 05:24:37 51° W
Cosmos 1386 Rocket 4.4 05:26:53 71° SSE 05:27:40 84° E 05:34:06 10° N
NOSS 3-1 (C) 4.1 05:21:47 10° NW 05:29:26 67° WSW 05:31:18 54° S
Meteor 1-19 Rocket 4.5 05:26:21 10° NNW 05:31:45 54° W 05:31:45 54° W
Meteor 1-14 Rocket 4.0 05:33:56 80° W 05:34:03 81° W 05:39:40 10° N
Cosmos 1331 Rocket 4.0 05:29:14 10° NNW 05:34:07 75° NW 05:34:07 75° NW
Cosmos 2297 Rocket 2.6 05:37:04 49° ESE 05:37:04 49° ESE 05:42:30 10° NE
ARGOS Delta rocket 4.4 05:34:38 10° NNE 05:38:47 48° ENE 05:38:47 48° ENE
USA 229 DEB 3.8 05:33:29 10° NW 05:40:54 84° WSW 05:43:12 50° SSE
USA 229 3.8 05:33:34 10° NW 05:41:00 85° WSW 05:43:21 50° SSE
Cosmos 2242 Rocket 4.3 05:38:40 10° N 05:42:35 48° ENE 05:42:35 48° ENE
Cosmos 2237 Rocket 2.6 05:37:35 10° NNW 05:43:11 57° ENE 05:44:36 45° ESE
Cosmos 2227 Rocket 2.7 05:47:43 45° ESE 05:47:53 45° ESE 05:53:15 10° NE
ASTEX 1 4.0 05:50:13 47° E 05:50:38 48° ENE 05:55:20 10° N
Meteor 2-4 Rocket 3.9 05:54:07 10° NNW 05:59:56 58° W 06:00:14 57° WSW
CZ-2D R/B 2.9 05:55:15 10° NNE 06:00:17 39° E 06:01:02 37° ESE
NOSS 3-1 (A) 4.1 05:53:39 10° NW 06:01:19 68° WSW 06:04:01 46° S
Cosmos 1269 Rocket 3.9 06:01:46 82° WSW 06:01:55 84° WNW 06:07:14 10° NNE
ADEOS II 3.9 05:58:32 10° NE 06:02:18 20° E 06:03:49 17° ESE
Cosmos 1869 Rocket 4.1 06:02:38 52° E 06:02:38 52° E 06:06:45 10° NNE
Cosmos 1743 4.2 06:04:42 30° ENE 06:04:42 30° ENE 06:07:34 10° NNE
Cosmos 1340 Rocket 3.7 06:07:38 45° NNW 06:07:38 45° NNW 06:10:31 10° N
SL-16 R/B 3.7 06:01:45 10° N 06:06:51 33° NE 06:11:54 10° ESE
COSMOS 2428 3.7 06:02:06 10° NW 06:06:19 32° W 06:06:19 32° W
Cosmos 2219 Rocket 3.7 06:07:59 10° NW 06:11:15 23° W 06:11:15 23° W
Cosmos 2263 Rocket 4.5 06:12:47 10° ESE 06:15:02 13° E 06:17:27 10° ENE
Cosmos 1933 Rocket 4.3 06:16:00 45° WNW 06:16:00 45° WNW 06:19:52 10° N
Timation 1 Rocket 4.4 06:15:47 54° SSE 06:16:43 61° ESE 06:22:37 10° NNE
Helios 1A 3.2 06:17:20 65° NNW 06:17:20 65° NNW 06:20:59 10° NNW
Intercosmos 25 Rocket 4.1 06:20:35 44° NNW 06:20:35 44° NNW 06:23:50 10° N
Okean 3 3.6 06:15:32 10° N 06:19:37 69° NE 06:19:37 69° NE
Okean 1-7 3.5 06:17:33 10° NNW 06:20:56 49° NW 06:20:56 49° NW
Cosmos 1302 Rocket 4.1 06:18:45 10° NNW 06:23:41 58° W 06:23:41 58° W
Cosmos 1992 Rocket 4.4 06:18:51 10° NNW 06:24:03 59° ENE 06:25:51 38° SE
Cosmos 909 Rocket 4.1 06:32:17 50° SW 06:34:13 86° WNW 06:41:44 10° NNE
Cosmos 2219 3.3 06:34:37 54° WSW 06:35:47 69° WNW 06:41:33 10° NNE
UNK 3.9 06:36:39 56° SE 06:37:33 72° ENE 06:42:13 10° N
Helios 1B rocket 2.9 06:34:30 10° NNE 06:38:31 50° E 06:38:41 50° ESE
Cosmos 1709 Rocket 4.4 06:37:29 41° WSW 06:38:53 47° WNW 06:45:01 10° N
Cosmos 1066 Rocket 4.3 06:34:51 10° NNW 06:40:39 66° W 06:41:47 54° SSW
MOZ.5/SAFIR/RUBIN 5/SL-8 4.4 06:47:17 42° W 06:47:17 42° W 06:51:29 10° NNW
Timation 2 Rocket 3.8 06:46:12 51° SW 06:47:49 81° WNW 06:53:57 10° NNE
Cosmos 2084 Rocket 3.4 06:48:39 10° NW 06:52:38 70° W 06:52:38 70° W
IDEFIX/ARIANE 42P 4.0 06:48:24 10° NE 06:52:58 31° E 06:55:37 20° SE
ATLAS 5 CENTAUR R/B 2.9 06:48:51 10° NW 06:54:18 40° WSW 06:54:21 40° WSW
Cosmos 2082 3.7 06:54:29 49° SSW 06:56:06 83° ESE 07:01:52 10° NNE
Cosmos 2251 Rocket 3.4 06:56:04 52° S 06:57:22 82° ESE 07:02:42 10° NNE
Meteor 1-11 Rocket 4.3 06:56:39 36° WSW 06:57:46 41° WNW 07:02:59 10° N
Cosmos 1536 4.0 06:58:20 30° WNW 06:58:20 30° WNW 07:01:35 10° NNW
Lacrosse 5 2.0 06:57:57 47° WSW 06:59:18 67° NW 07:04:22 10° NE
Cosmos 2184 Rocket 3.9 06:59:24 41° SSW 07:01:44 85° W 07:08:03 10° N
Resurs 1-4 Rocket 2.3 06:56:52 10° N 07:02:05 58° WNW 07:03:26 44° WSW
SL-16 R/B 2.5 07:00:09 41° SSW 07:02:18 65° WSW 07:08:27 10° NNW
Cosmos 2154 Rocket 4.0 07:05:53 33° S 07:08:51 76° E 07:15:04 10° N
Cosmos 1733 Rocket 3.0 07:13:20 55° SSW 07:14:16 79° W 07:18:45 10° N
SL-8 R/B 4.0 07:15:14 43° S 07:16:03 48° SE 07:20:41 10° ENE
Cosmos 1140 Rocket 4.2 07:14:54 27° SSE 07:17:22 48° ESE 07:22:24 10° NNE
AQUA 4.0 07:15:46 10° N 07:20:27 57° WNW 07:21:46 42° SW
Cosmos 2297 Rocket 3.6 07:18:52 20° W 07:21:21 27° NW 07:26:07 10° N
NPP 4.0 07:17:02 10° N 07:22:14 50° WNW 07:24:07 35° WSW
Cosmos 2074 Rocket 4.2 07:23:14 34° SW 07:25:44 54° WNW 07:31:49 10° N
Cosmos 2237 Rocket 3.6 07:22:38 10° NW 07:26:22 21° W 07:26:22 21° W
ARIANE 5 R/B 4.0 07:26:07 10° NNE 07:30:43 32° E 07:35:20 10° SSE
Okean 2 3.5 07:26:39 10° N 07:30:50 74° E 07:33:05 26° SSE
ADEOS Rocket 3.0 07:29:11 33° SSW 07:31:17 49° W 07:36:37 10° NNW
Cosmos 2227 Rocket 3.5 07:29:32 21° W 07:32:06 29° NW 07:36:59 10° N
CZ-2D R/B 3.3 07:35:36 10° N 07:40:10 29° WNW 07:42:21 22° WSW
ADEOS II 2.4 07:37:10 10° N 07:42:18 54° WNW 07:44:45 29° SW
Meteor 1-28 Rocket 3.2 07:41:29 41° SSW 07:42:32 61° W 07:46:14 10° NNW
Meteor 2-9 Rocket 4.3 07:43:10 30° SW 07:45:35 55° WNW 07:50:50 10° N
SL-8 Rocket 4.5 07:40:18 12° S 07:45:56 59° E 07:51:58 10° NNE
IRS-1D 3.5 07:41:14 10° N 07:46:10 66° WNW 07:48:42 29° SSW
NOSS 3-3 (A) 3.9 07:44:35 26° SSW 07:47:53 72° ESE 07:54:16 10° NE
NOSS 3-3 (C) 3.9 07:44:42 26° SSW 07:48:00 71° ESE 07:54:21 10° NE
EP 1 4.5 07:47:55 51° SW 07:48:36 85° NW 07:51:22 10° NE
Cosmos 2227 4.4 07:45:48 22° S 07:49:24 67° ESE 07:54:59 10° NNE
Cosmos 1782 Rocket 4.4 07:46:19 14° SSE 07:49:45 47° E 07:53:57 10° NNE
SL-16 R/B 2.7 07:45:47 10° NW 07:51:00 39° WSW 07:53:48 24° SSW
Iridium 4 Rocket 3.9 07:46:48 10° N 07:52:11 56° W 07:55:47 22° SSW
Cosmos 2263 Rocket 2.2 07:54:29 24° SSW 07:58:05 87° WNW 08:03:49 10° NNE
Cosmos 1975 3.7 07:57:16 28° WSW 07:58:37 36° WNW 08:02:24 10° N
ATLAS CENTAUR R/B 1.8 07:57:40 24° S 07:59:36 48° ESE 08:03:23 10° NE
Landsat 4 4.3 07:57:22 10° N 08:00:51 40° WNW 08:02:12 28° WSW
CZ-4C R/B 3.1 07:55:14 10° NW 08:02:40 89° SW 08:11:13 10° SSE
Cosmos 407 Rocket 3.7 08:01:06 24° SW 08:04:17 61° WNW 08:09:31 10° NNE
Cosmos 1461 3.4 08:05:09 24° WSW 08:07:45 56° NW 08:12:09 10° NNE
Cosmos 1707 2.9 08:04:00 10° NNW 08:07:45 52° W 08:10:01 21° SSW
Meteor 1-29 4.4 08:07:17 10° NNW 08:09:53 22° WNW 08:10:46 19° W
Cosmos 2344 3.5 08:04:50 20° SW 08:10:25 81° NW 08:18:12 10° NE
ALOS 4.4 08:06:53 10° NE 08:10:40 24° E 08:14:23 10° SSE
GEOS 3 Rocket 4.0 08:06:20 10° SE 08:11:39 73° NE 08:16:58 10° NNW
Cosmos 2341 Rocket 4.0 08:06:43 16° SSW 08:11:48 71° W 08:18:02 10° N
Helios 1B rocket 4.5 08:11:02 10° NNW 08:13:20 15° WNW 08:14:58 12° W
Spot 1 3.8 08:09:24 10° S 08:13:35 77° WSW 08:17:40 10° NNW
In-Cosmos 22 4.2 08:08:17 10° NNW 08:14:02 69° W 08:19:42 10° S
Cosmos 2218 Rocket 4.1 08:07:54 10° S 08:14:17 82° E 08:20:39 10° N
Cosmos 1238 Rocket 3.9 08:18:43 18° W 08:19:31 20° WNW 08:22:01 10° NNW
SL-08 R/B 3.5 08:15:55 10° SSE 08:20:50 83° ENE 08:25:49 10° NNW
COSMOS 2441 4.4 08:16:51 10° N 08:21:37 66° WNW 08:25:38 15° SSW
Cosmos 1733 4.0 08:18:35 10° S 08:22:18 51° E 08:26:03 10° NNE
Cosmos 1300 Rocket 4.1 08:26:01 10° S 08:30:15 57° E 08:34:32 10° NNE
Cosmos 1943 3.2 08:25:01 10° NNW 08:30:44 76° WSW 08:36:25 10° SSE
IRS-P3 4.3 08:26:05 10° N 08:31:20 60° WNW 08:36:17 12° SSW
BREEZE-M DEB (TANK) 2.9 08:30:27 15° W 08:32:21 49° NNW 08:34:39 10° NE
IDEFIX/ARIANE 42P 3.4 08:27:53 10° N 08:32:32 34° WNW 08:36:25 14° SW
Cosmos 1975 Rocket 3.0 08:30:43 10° NNW 08:35:07 74° W 08:39:27 10° S
USA 290 3.9 08:32:29 10° N 08:35:33 37° ENE 08:38:35 10° SE
SL-24 R/B - RUBIN 2 4.0 08:31:22 10° NNW 08:36:23 72° NE 08:40:51 10° SE
CZ-3 Stage 3 3.6 08:35:33 10° SSE 08:37:19 12° SE 08:39:59 10° ESE
CZ-2C R/B 2.5 08:33:00 10° NNE 08:37:34 69° ESE 08:42:09 10° S
Cosmos 1340 2.7 08:36:19 10° NNW 08:40:00 54° W 08:43:39 10° S
USA 215 3.4 08:34:51 10° NE 08:41:25 75° SE 08:47:56 10° SW
Cosmos 1900 4.4 08:37:53 11° SSW 08:42:41 86° ESE 08:47:40 10° NNE
Lacrosse 5 3.8 08:39:12 10° WNW 08:43:05 22° NNW 08:46:59 10° NNE
Cosmos 1626 2.0 08:40:34 10° N 08:44:16 82° W 08:47:56 10° S
Cosmos 1400 Rocket 2.7 08:40:56 10° SSW 08:44:47 75° W 08:48:42 10° N
Cosmos 1674 3.3 08:46:44 10° NNW 08:50:18 38° W 08:53:51 10° SSW
Meteor 1-12 Rocket 4.4 08:45:47 10° SSW 08:51:19 58° WNW 08:56:58 10° N
Cosmos 1315 Rocket 4.3 08:48:36 10° SSE 08:52:24 38° E 08:56:11 10° NNE
BREEZE-M DEB (TANK) 3.8 08:48:19 10° WSW 08:56:12 50° NNW 08:59:01 10° NE
PSLV R/B 4.3 08:53:46 10° NNE 08:58:00 54° E 09:02:09 10° S
SL-8 R/B 4.2 08:53:51 10° W 08:58:35 57° NNW 09:03:21 10° ENE
Cosmos 1850 Rocket 4.3 08:55:41 10° S 09:00:57 74° ESE 09:06:14 10° NNE
Meteor 2-5 Rocket 4.1 08:57:42 10° N 09:03:40 77° E 09:09:30 10° SSE
Cosmos 468 Rocket 4.0 08:59:31 10° NNW 09:04:51 83° WSW 09:10:05 10° SSE
CZ-4B R/B 4.0 09:00:37 10° N 09:05:10 40° WNW 09:09:36 10° SW
Cosmos 1821 Rocket 4.0 09:01:09 10° S 09:07:19 89° W 09:13:28 10° N
Cosmos 1025 Rocket 3.2 09:04:52 10° NNW 09:09:05 55° W 09:13:19 10° S
Cosmos 44 4.1 09:04:54 10° NW 09:09:27 32° WSW 09:13:45 10° S
ARIANE 5 R/B 3.4 09:05:11 10° N 09:09:46 33° WNW 09:14:23 10° SW
Cosmos 1844 Rocket 2.9 09:06:04 10° SSW 09:11:42 79° ESE 09:17:24 10° NNE
